Location: Albany
(35.0170°S, 117.8920°E)
Time: 17:32:01
(UTC+08:00)

Transit 2A - Pass Details

Date: 30 January 2021
Orbit: 601 x 958 km, 66.7° (Epoch: 02 March)

Event Time Altitude Azimuth Distance (km) Brightness Sun altitude
Rises 14:33:18 0° 320° (NW) 2,960 9.5 56.0°
Reaches altitude 10° 14:35:33 10° 314° (NW) 2,098 9.0 55.6°
Maximum altitude 14:40:09 49° 239° (WSW) 934 7.7 54.7°
Drops below altitude 10° 14:45:18 10° 164° (SSE) 2,339 8.4 53.7°
Sets 14:47:57 0° 158° (SSE) 3,337 9.1 53.2°
